Location: Shepherdstown, WV
(39.4326°N, 77.8042°W)
Time: 05:51:53
(UTC-04:00)

Vanguard 3 - Pass Details

Date: 08 August 2021
Orbit: 510 x 3260 km, 33.3° (Epoch: 21 September)

Event Time Altitude Azimuth Distance (km) Brightness Sun altitude
Rises 22:36:43 0° 280° (W) 6,258 12.5 -23.3°
Reaches altitude 10° 22:40:46 10° 274° (W) 5,537 12.0 -23.9°
Maximum altitude 22:56:48 42° 212° (SSW) 4,110 10.4 -25.8°
Enters shadow 23:05:26 30° 170° (S) 4,673 10.4 -26.8°
Drops below altitude 10° 23:14:02 10° 150° (SSE) 5,888 - -27.8°
Sets 23:18:36 0° 144° (SE) 6,667 - -28.3°
